"Pseudo-MPEC" for P10GxwH

Created 2018 Feb 19 19:18:07 UT using Find_Orb

Astrometry:
     P10GxwH  C2018 02 12V=Astrometry!JMy:e8P94OggOt7^Uy3v!C9V9rfq3Qd=mf0[fH]F51
     P10GxwH  C2018 02 12;gW-Aob@\^AZRxsJJredacted;:A]E+Tsee9LeNhQw%G6T_,p%B/F51
     P10GxwH  C2018 02 12;RPe#j`:5Fo(r4W:?.?fL/te;kj8TD:owjZT4tHJ@=,l+c,NEOCPF51

Station data:
(F51) Pan-STARRS 1, Haleakala  (N20.707234 W156.255910)  US/Hawaii.
   Observers N. Primak, A. Schultz, S. Watters, J. Thiel, T. Goggia. Measurer
   PS1 Science Consortium. 1.8-m Ritchey-Chrétien + CCD.

Orbital elements:  P10GxwH
   Perihelion 2018 Jan 1.362621 +/- 52.5 TT =  8:42:10 (JD 2458119.862621)
Epoch 2018 Feb 12.0 TT = JDT 2458161.5   Earth MOID: 0.4506   Ma: 0.0538
M  11.21108 +/- 14                  (J2000 ecliptic)          AutoNEOCP
n   0.26925521 +/- 0.239            Peri.  350.60048 +/- 60
a   2.37516234 +/- 1.4              Node   121.58906 +/- 33
e   0.3963082 +/- 0.237             Incl.    4.60536 +/- 4.0
P   3.66                   H 22.8   G  0.15   U 11.8  SR
q 1.43386599 +/- 0.605    Q 3.31645869 +/- 164
From 3 observations 2018 Feb. 12 (38.5 min); mean residual 0".03
Residuals in arcseconds: 
180212 F51  .03+  .00     180212 F51  .07-  .01+    180212 F51  .03+  .00     

Ephemerides (geocentric):
Date (UTC) HH   RA              Dec         delta   r     elong  mag " sig PA
---- -- -- --  ------------   ------------  ------ ------ -----  --- ---- ---
2018 02 19 19  09 07 57.167   +21 49 43.41  .53000 1.5006 161.4 23.1  29d  14
2018 02 19 20  09 07 57.170   +21 49 58.36  .53019 1.5007 161.4 23.1  29d  14
2018 02 19 21  09 07 57.175   +21 50 13.28  .53037 1.5008 161.3 23.1  30d  14
2018 02 19 22  09 07 57.184   +21 50 28.17  .53056 1.5009 161.3 23.1  30d  14
2018 02 19 23  09 07 57.196   +21 50 43.01  .53075 1.5010 161.3 23.1  30d  14
2018 02 20 00  09 07 57.210   +21 50 57.83  .53094 1.5012 161.2 23.1  30d  14
2018 02 20 01  09 07 57.227   +21 51 12.60  .53112 1.5013 161.2 23.1  30d  14
2018 02 20 02  09 07 57.248   +21 51 27.34  .53131 1.5014 161.1 23.1  30d  14
2018 02 20 03  09 07 57.271   +21 51 42.05  .53150 1.5015 161.1 23.1  30d  14
2018 02 20 04  09 07 57.297   +21 51 56.72  .53169 1.5016 161.0 23.1  30d  14
2018 02 20 05  09 07 57.326   +21 52 11.35  .53188 1.5017 161.0 23.1  30d  14
2018 02 20 06  09 07 57.358   +21 52 25.94  .53206 1.5018 161.0 23.1  30d  14
2018 02 20 07  09 07 57.393   +21 52 40.51  .53225 1.5019 160.9 23.1  30d  14
2018 02 20 08  09 07 57.431   +21 52 55.03  .53244 1.5020 160.9 23.1  30d  14
2018 02 20 09  09 07 57.472   +21 53 09.52  .53263 1.5021 160.8 23.1  31d  14
2018 02 20 10  09 07 57.515   +21 53 23.97  .53282 1.5022 160.8 23.1  31d  15
2018 02 20 11  09 07 57.562   +21 53 38.39  .53301 1.5023 160.7 23.1  31d  15
2018 02 20 12  09 07 57.612   +21 53 52.77  .53320 1.5025 160.7 23.1  31d  15
2018 02 20 13  09 07 57.664   +21 54 07.12  .53340 1.5026 160.7 23.1  31d  15
2018 02 20 14  09 07 57.720   +21 54 21.43  .53359 1.5027 160.6 23.1  31d  15
2018 02 20 15  09 07 57.779   +21 54 35.70  .53378 1.5028 160.6 23.1  31d  15
2018 02 20 16  09 07 57.840   +21 54 49.94  .53397 1.5029 160.5 23.1  31d  15
2018 02 20 17  09 07 57.905   +21 55 04.14  .53416 1.5030 160.5 23.1  31d  15
2018 02 20 18  09 07 57.972   +21 55 18.30  .53435 1.5031 160.5 23.1  32d  15
2018 02 20 19  09 07 58.043   +21 55 32.43  .53455 1.5032 160.4 23.1  32d  15
2018 02 20 20  09 07 58.116   +21 55 46.52  .53474 1.5033 160.4 23.1  32d  15
2018 02 20 21  09 07 58.193   +21 56 00.58  .53493 1.5034 160.3 23.1  32d  15
2018 02 20 22  09 07 58.272   +21 56 14.60  .53513 1.5036 160.3 23.1  32d  15
2018 02 20 23  09 07 58.355   +21 56 28.59  .53532 1.5037 160.2 23.1  32d  15
2018 02 21 00  09 07 58.440   +21 56 42.54  .53551 1.5038 160.2 23.1  32d  15
2018 02 21 01  09 07 58.529   +21 56 56.45  .53571 1.5039 160.2 23.1  32d  15
2018 02 21 02  09 07 58.620   +21 57 10.32  .53590 1.5040 160.1 23.1  32d  15
2018 02 21 03  09 07 58.715   +21 57 24.16  .53610 1.5041 160.1 23.1  32d  15
2018 02 21 04  09 07 58.813   +21 57 37.97  .53629 1.5042 160.0 23.1  32d  15
2018 02 21 05  09 07 58.913   +21 57 51.74  .53649 1.5043 160.0 23.1  33d  15
2018 02 21 06  09 07 59.017   +21 58 05.47  .53668 1.5044 159.9 23.1  33d  15
2018 02 21 07  09 07 59.124   +21 58 19.16  .53688 1.5045 159.9 23.1  33d  15
2018 02 21 08  09 07 59.233   +21 58 32.82  .53707 1.5047 159.9 23.1  32d   7
2018 02 21 09  09 07 59.346   +21 58 46.45  .53727 1.5048 159.8 23.1  33d   7
2018 02 21 10  09 07 59.462   +21 59 00.03  .53747 1.5049 159.8 23.1  33d   7
2018 02 21 11  09 07 59.581   +21 59 13.58  .53766 1.5050 159.7 23.1  33d   7
2018 02 21 12  09 07 59.703   +21 59 27.10  .53786 1.5051 159.7 23.1  33d   7
2018 02 21 13  09 07 59.828   +21 59 40.58  .53806 1.5052 159.7 23.1  33d   7
2018 02 21 14  09 07 59.956   +21 59 54.02  .53826 1.5053 159.6 23.1  33d   7
2018 02 21 15  09 08 00.087   +22 00 07.42  .53846 1.5054 159.6 23.1  33d   7
2018 02 21 16  09 08 00.222   +22 00 20.79  .53865 1.5055 159.5 23.1  33d   7
2018 02 21 17  09 08 00.359   +22 00 34.12  .53885 1.5057 159.5 23.1  33d   7
2018 02 21 18  09 08 00.500   +22 00 47.42  .53905 1.5058 159.4 23.1  33d   7